NOAA 17 DEB, 48179

Orbit data source: Space-Track

NOAA 17 DEB, 48179 is space debris in SSO originally from a launch on Mon, 24 Jun 2002 UTC launched from the Air Force Western Test Range (AFWTR). Debris objects in space refer to the collection of defunct objects orbiting the Earth. Examples of debris include non-operational satellites, rocket bodies, and fragments generated from explosions, collisions, or faulty payload assembly.

Loading next visibility...
Identifier
48179, 2002-032U
Orbit
SSO
Country
Flag of USUS
Related business
Manufacturer
Unknown
Mission
Spacecraft
Bus & Motor
Unknown
Mass
Unknown
Launch date (UTC)
2002-06-24 (23 years ago)
Launch vehicle
Unknown
Launch site
Air Force Western Test Range (AFWTR)
Object type
Payload
Rocket body
Debris
Shape & HBR
Unknown shape, 0.1 m
Radar Cross Section
Small (<0.1 m²)

Expand to show TLE details & history
Last TLE update: 1 day ago

TLE from 1 day ago
0 NOAA 17 DEB
1 48179U 02032U   25349.03080380  .00001742  00000-0  44848-3 0  9996
2 48179  98.8517  19.9997 0039106 206.5729 153.3460 14.51051678248883
Epoch: 2025-12-15T00:44Z
TLE epoch observation values (Epoch: 2025-12-15T00:44:21.448Z)
Latitude
-0.00003°
Longitude
-75.02488°
Altitude
750.011 km
Speed
7.467 km/s
True Right ascension
01h 19m 59s
True Declination
0° 00' 00"
Sunlit
Object was in daylight at epoch
Visualization orbit readout
Latitude
Unknown
Longitude
Unknown
Altitude
Unknown
Speed
Unknown
Apparent Right ascension
Unknown
Apparent Declination
Unknown
Sunlit
N/A
Visualization observer readout
Local Sidereal Time
08:22:03
Azimuth
Unknown
Elevation
Unknown
Doppler factor
Unknown
Orbital elements
Apogee altitude
747.095 km
Perigee altitude
691.584 km
Semi-major axis
7,097.477 km
Eccentricity
0.00391
Inclination
98.8517°
RAAN
19.9997°
Arg. of periapsis
206.5729°
True anomaly
153.54615°
Mean anomaly
153.346°
Eccentric anomaly
153.44616°
Mean motion
3.62984 °/min
Orbital period
99.18 mins
BSTAR
0.00044848
Loading maneuver chart data...
Computing Atmospheric mass density...
Loading historical data...
Loading historical data...
Loading historical data...
Loading historical data...
Loading historical data...
Loading historical data...
Loading historical data...

Documentation

Showing up to 5 results
|